Weather History for Volk, WI

Change the Weather History Date:

Friday, September 5, 2014

  Actual Average Record
Temperature  
Mean Temperature 64 °F -  
Max Temperature 79 °F 75 °F 88 °F (2007)
Min Temperature 48 °F 55 °F 37 °F (2011)
Growing Degree Days 14 (Base 50)    
Moisture  
Dew Point 60 °F    
Average Humidity 83    
Maximum Humidity 100    
Minimum Humidity 68    
Precipitation  
Precipitation 0.00 in - - ()
Sea Level Pressure  
Sea Level Pressure 30.01 in    
Wind  
Wind Speed 11 mph (WNW)    
Max Wind Speed 17 mph    
Max Gust Speed 23 mph    
Visibility 10 miles    
Events Rain , Thunderstorm    
Averages and records for this station are not official NWS values.
T = Trace of Precipitation, MM = Missing Value Source: NWS Daily Summary

Daily Weather History Graph

Daily Weather History Graph

Search for Another Location

Airport:

Trip Planner

Search our weather history database for the weather conditions in past years. The results will help you decide how hot, cold, wet, or windy it might be!

Date:

Astronomy

Sep. 05, 2014 Rise Set
Actual Time 6:28 AM CDT 7:29 PM CDT
Civil Twilight 5:59 AM CDT 7:58 PM CDT
Nautical Twilight 5:24 AM CDT 8:34 PM CDT
Astronomical Twilight 4:47 AM CDT 9:10 PM CDT
Moon 5:03 PM CDT (9/5) 2:17 AM CDT (9/5)
Length of Visible Light 13h 59m
Length of Day
13h 00m
Waxing Gibbous, 84% of the Moon is Illuminated
Sep 5
Waxing Gibbous
Sep 8
Full
Sep 15
Last Quarter
Sep 24
New
Oct 1
First Quarter

Hourly Weather History & Observations

Time (CDT) Temp. Dew Point Humidity Pressure Visibility Wind Dir Wind Speed Gust Speed Precip Events Conditions
12:58 AM 79.5 °F 77.0 °F 92% 29.79 in 10.0 mi SW 9.2 mph - N/A   Clear
1:58 AM 78.6 °F 77.2 °F 95% 29.80 in 10.0 mi WSW 9.2 mph - N/A   Clear
2:58 AM 77.0 °F 76.6 °F 99% 29.83 in 10.0 mi West 11.5 mph - N/A   Clear
3:58 AM 75.0 °F 70.2 °F 85% 29.88 in 10.0 mi NW 15.0 mph 23.0 mph N/A   Scattered Clouds
4:03 AM 73.4 °F 68.0 °F 83% 29.90 in 10.0 mi NW 10.4 mph 19.6 mph N/A   Mostly Cloudy
4:45 AM 71.6 °F 69.8 °F 94% 29.94 in 10.0 mi West 11.5 mph - N/A Rain , Thunderstorm Light Rain
4:53 AM 71.6 °F 69.8 °F 94% 29.94 in 10.0 mi WNW 12.7 mph - N/A Thunderstorm Mostly Cloudy
4:56 AM 71.6 °F 69.8 °F 94% 29.93 in 10.0 mi WNW 13.8 mph 19.6 mph N/A Rain , Thunderstorm Light Rain
4:58 AM 71.6 °F 69.8 °F 94% 29.93 in 10.0 mi WNW 12.7 mph 19.6 mph 0.00 in Rain , Thunderstorm Light Rain
5:09 AM 71.6 °F 68.0 °F 88% 29.93 in 10.0 mi WNW 17.3 mph 21.9 mph N/A   Scattered Clouds
5:24 AM 69.8 °F 64.4 °F 83% 29.92 in 10.0 mi WNW 13.8 mph - N/A   Mostly Cloudy
5:34 AM 69.8 °F 64.4 °F 83% 29.93 in 10.0 mi NW 8.1 mph 16.1 mph N/A   Scattered Clouds
5:58 AM 68.2 °F 62.6 °F 82% 29.93 in 10.0 mi NNW 10.4 mph - 0.00 in   Partly Cloudy
6:58 AM 64.4 °F 60.8 °F 88% 29.96 in 10.0 mi West 5.8 mph - N/A   Mostly Cloudy
8:16 AM 66.2 °F 57.2 °F 73% 29.99 in 10.0 mi WNW 12.7 mph - N/A   Overcast
8:58 AM 66.2 °F 57.2 °F 73% 29.99 in 10.0 mi WNW 16.1 mph 20.7 mph N/A   Overcast
9:58 AM 64.4 °F 55.4 °F 73% 30.03 in 10.0 mi WNW 10.4 mph - N/A   Overcast
10:58 AM 64.4 °F 55.4 °F 73% 30.02 in 10.0 mi NW 10.4 mph - N/A   Mostly Cloudy
11:58 AM 66.2 °F 57.2 °F 73% 30.02 in 10.0 mi NW 11.5 mph - N/A   Mostly Cloudy
12:58 PM 64.4 °F 55.4 °F 73% 30.06 in 10.0 mi NW 12.7 mph - N/A   Mostly Cloudy
1:58 PM 66.2 °F 55.4 °F 68% 30.07 in 10.0 mi NW 16.1 mph - N/A   Mostly Cloudy
2:03 PM 64.4 °F 55.4 °F 73% 30.07 in 10.0 mi NNW 11.5 mph - N/A   Scattered Clouds
2:13 PM 64.4 °F 55.4 °F 73% 30.07 in 10.0 mi NW 12.7 mph - N/A   Mostly Cloudy
2:18 PM 64.4 °F 55.4 °F 73% 30.07 in 10.0 mi NW 12.7 mph 19.6 mph N/A   Scattered Clouds
2:28 PM 62.6 °F 55.4 °F 77% 30.07 in 10.0 mi NW 12.7 mph - N/A   Mostly Cloudy
2:53 PM 64.4 °F 53.6 °F 68% 30.07 in 10.0 mi WNW 12.7 mph 20.7 mph N/A   Mostly Cloudy
2:58 PM 63.7 °F 54.0 °F 71% 30.07 in 10.0 mi WNW 13.8 mph 19.6 mph N/A   Mostly Cloudy
3:03 PM 62.6 °F 53.6 °F 72% 30.07 in 10.0 mi WNW 11.5 mph 19.6 mph N/A   Mostly Cloudy
3:08 PM 62.6 °F 53.6 °F 72% 30.07 in 10.0 mi NW 10.4 mph 19.6 mph N/A   Mostly Cloudy
3:58 PM 63.5 °F 53.8 °F 71% 30.08 in 10.0 mi NW 10.4 mph 20.7 mph N/A   Partly Cloudy
4:58 PM 62.4 °F 53.6 °F 73% 30.09 in 10.0 mi NW 12.7 mph - N/A   Partly Cloudy
5:58 PM 61.2 °F 54.3 °F 78% 30.09 in 10.0 mi NW 11.5 mph - N/A   Mostly Cloudy
6:08 PM 60.8 °F 55.4 °F 82% 30.07 in 10.0 mi NW 10.4 mph - N/A   Overcast
6:18 PM 60.8 °F 55.4 °F 82% 30.07 in 10.0 mi NW 8.1 mph - N/A   Overcast
6:58 PM 59.7 °F 55.4 °F 86% 30.07 in 10.0 mi NW 8.1 mph - N/A   Scattered Clouds
7:58 PM 58.6 °F 55.8 °F 90% 30.07 in 10.0 mi NW 9.2 mph - N/A   Clear
8:58 PM 55.6 °F 55.6 °F 100% 30.12 in 10.0 mi WNW 8.1 mph - N/A   Partly Cloudy
9:58 PM 54.0 °F 54.0 °F 100% 30.13 in 10.0 mi WNW 5.8 mph - N/A   Partly Cloudy
10:58 PM 50.4 °F 50.4 °F 100% 30.16 in 10.0 mi WNW 8.1 mph - N/A   Clear
11:58 PM 48.4 °F 48.4 °F 100% 30.17 in 8.0 mi WNW 5.8 mph - N/A   Clear